SCP
0 0 0 0 0 0 0 0 0 0 0 0 0 0 0 0 0 0 -0 0 -0 -0 0 0 -0 -0 0 0 0 0 0 0 0 0 0 0 0 0
0 0 0 0 0 0 0 0 0 0 0 0 0 0 0 0 0 -0 -0 -0 0 0 -0 -0 -0 -0 0 0 0 0 0 0 0 0 0 0 0 0
0 0 0 0 0 0 0 0 0 0 0 0 0 0 0 -0 -0 -0 -0 -0 0 -0 -0 -0 -0 -0 0 0 0 0 0 0 0 0 0 0 0 0
0 0 0 0 0 0 0 0 0 0 0 0 0 0 0 -0 0 0 0 0 0 -0 -0 -0 -0 0 0 0 0 0 0 0 0 0 0 0 0 0
0 0 0 0 0 0 0 0 0 0 0 0 0 0 0 0 0 0 0 0 0 0 0 0 0 0 0 0 0 0 0 0 0 0 0 0 0 0
0 0 0 0 0 0 0 0 0 0 0 0 0 0 0 0 0 0 0 0 0 0 0 0 0 0 0 0 0 0 0 0 0 0 0 0 0 0
0 0 0 0 0 0 -0 0 0 0 0 0 0 0 0 0 0 0 0 -0 -0 0 0 0 0 0 0 0 0 0 0 0 0 0 0 0 0 0
0 0 0 0 -0 0 0 0 0 0 0 0 0 0 0 0 -0 0 0 0 0 0 0 0 0 0 0 0 0 0 0 0 0 0 0 0 0 0
0 0 -0 -0 -0 0 0 0 0 0 0 0 0 0 0 -0 0 0 0 0 0 0 0 0 0 0 0 0 0 0 0 0 0 0 0 0 0 0
0 -0 -0 -0 0 0 0 0 0 0 0 0 -0 0 0 0 0 0 0 0 0 0 0 0 0 0 0 0 0 0 0 0 0 0 0 0 0 0
-0 0 0 -0 0 0 0 -0 -0 -0 0 0 -0 0 0 0 0 0 0 0 0 0 0 0 0 0 0 0 0 0 0 0 0 0 0 0 0 0
-0 -0 0 -0 -0 -0 -0 0 0 -0 -0 -0 -0 -0 0 0 0 0 0 0 0 0 0 0 0 0 0 0 0 0 0 0 0 0 0 0 0 0
-0 -0 -0 0 0 0 0 0 0 -0 0 0 0 0 0 0 0 0 0 0 0 0 0 0 0 0 0 0 0 0 0 0 0 0 0 0 0 0
0 0 0 0 0 -0 -0 -0 0 0 0 0 0 0 0 0 0 0 0 0 0 0 0 0 0 0 0 0 0 0 0 0 0 0 0 0 0 0
0 0 -0 -0 -0 -0 -0 -0 0 0 0 0 0 0 0 0 0 0 0 0 0 0 0 0 0 0 0 0 0 0 0 0 0 0 0 0 0 0
-0 -0 -0 -0 0 0 0 0 0 0 0 0 0 0 0 0 0 0 0 0 0 0 0 0 0 0 0 0 0 0 0 0 0 0 0 0 0 0
-0 0 0 0 0 0 0 0 0 0 0 0 0 0 0 0 0 0 0 0 0 0 0 0 0 0 0 0 0 0 0 0 0 0 0 0 0 0
0 0 0 0 0 0 0 0 0 0 0 0 0 0 0 0 0 0 0 0 0 0 0 0 0 0 0 0 0 0 0 0 0 0 0 0 0 0
0 0 0 0 0 0 0 0 0 0 0 0 0 0 0 0 0 0 0 0 0 0 0 0 0 0 0 0 0 0 0 0 0 0 0 0 0 0
0 0 0 0 0 0 0 0 0 0 0 0 0 0 0 0 0 0 0 0 0 0 0 0 0 0 0 0 0 0 0 0 0 0 0 0 0 0
0 0 0 0 0 0 0 0 0 0 0 0 0 0 0 0 0 0 0 0 0 0 0 0 0 0 0 0 0 0 0 0 0 0 0 0 0 0
0 0 0 0 0 0 0 0 0 0 0 0 0 0 0 0 0 0 0 0 0 0 0 0 0 0 0 0 0 0 0 0 0 0 0 0 0 0
0 0 0 0 0 0 0 0 0 0 0 0 0 0 0 0 0 0 0 0 0 0 0 0 0 0 0 0 0 0 0 0 0 0 0 0 0 0
Wind_Speed_500mb
43 43 42 59 55 60 64 58 67 36 39 57 60 54 54 57 49 41 21 21 18 18 20 20 20 18 16 17 19 22 24 27 28 30 34 36 36 36
40 34 43 54 48 53 62 58 52 50 35 69 52 55 56 63 49 38 22 19 19 19 20 20 19 19 19 18 21 26 30 32 34 37 38 41 41 41
37 37 44 46 57 68 49 53 53 39 64 53 48 41 50 55 44 36 29 22 21 20 20 20 21 22 21 21 25 31 34 37 41 44 44 45 46 48
33 45 54 50 64 51 47 54 38 42 45 43 39 35 35 33 30 29 26 21 19 19 18 23 26 24 25 29 34 38 42 46 49 51 52 52 54 56
33 48 53 50 60 49 56 50 50 42 35 32 35 31 29 26 24 27 20 19 21 19 19 22 24 25 31 38 43 47 51 54 57 58 60 61 62 62
37 41 53 52 59 55 56 54 33 29 32 33 29 37 32 25 19 23 25 22 18 21 19 22 27 34 36 36 40 43 46 45 45 46 48 51 54 58
33 33 50 44 59 60 51 38 35 40 35 24 27 33 30 31 24 22 23 18 19 26 28 27 29 32 34 40 44 45 45 46 46 50 53 55 57 58
42 48 48 68 56 44 34 26 32 34 28 28 29 27 23 18 17 15 13 18 22 14 31 33 38 49 45 46 47 54 57 57 56 56 61 63 65 67
51 56 62 65 47 40 37 30 32 21 18 14 15 12 8 5 3 7 15 21 26 28 42 50 47 54 48 53 53 55 59 51 51 57 68 63 64 71
42 45 53 50 40 39 34 32 35 33 26 27 29 21 13 18 19 20 26 29 31 32 34 38 35 39 31 27 37 40 39 50 58 64 61 62 66 66
32 36 42 41 36 32 37 48 39 37 30 27 23 24 23 24 26 28 35 35 37 33 33 32 32 43 48 48 38 38 42 43 52 52 45 49 53 54
29 33 32 35 37 37 37 36 34 34 28 28 22 19 17 14 15 12 10 9 11 17 22 38 31 34 25 20 42 51 55 51 54 51 53 50 53 54
29 34 34 34 33 31 30 29 30 28 24 18 13 9 5 8 10 6 5 7 14 20 22 24 28 33 43 50 53 53 50 52 47 41 51 55 62 65
28 30 33 36 35 33 31 27 21 17 13 9 10 17 18 11 2 4 11 15 12 8 6 15 21 25 30 41 49 55 57 51 52 57 66 71 61 58
28 33 37 38 37 32 30 28 25 23 20 22 24 15 7 6 13 17 9 7 11 8 19 21 23 30 39 45 52 59 71 69 61 64 64 63 65 69
34 37 36 34 33 31 29 26 23 19 20 22 16 10 12 13 17 14 12 11 15 15 11 17 25 30 35 40 48 55 57 60 69 71 73 72 70 61
39 38 40 40 38 36 27 18 17 22 23 20 11 9 13 6 2 8 13 7 7 13 19 24 30 33 36 43 48 52 61 64 67 70 72 77 69 58
47 42 39 35 30 25 25 29 30 30 30 19 11 5 5 3 10 4 8 10 10 13 20 30 40 45 46 46 47 58 61 64 65 67 64 67 67 50
48 40 36 32 25 29 30 29 37 41 30 19 12 8 7 9 12 11 6 7 11 17 24 31 39 47 56 61 61 58 61 58 58 66 66 59 61 52
56 48 43 35 37 39 42 46 47 45 35 27 21 17 16 20 15 10 9 11 15 19 23 30 43 53 56 60 61 56 54 58 58 62 66 64 64 54
59 54 49 44 43 44 55 58 51 41 33 28 22 26 27 22 18 11 9 10 16 24 32 39 44 51 52 55 61 67 65 59 58 56 60 67 69 71
55 55 56 54 55 59 59 56 46 35 32 26 31 27 27 22 15 11 8 11 17 21 28 35 41 51 58 60 61 71 79 72 61 57 51 47 56 62
58 60 57 58 65 66 60 52 41 38 36 38 31 29 28 24 17 9 7 8 14 23 31 36 47 54 57 58 62 72 72 71 74 77 72 54 48 45
Wind_Direction_500mb
180 182 172 167 169 173 172 165 160 165 145 173 173 182 183 177 187 193 192 201 212 222 216 217 219 228 251 269 279 278 281 284 291 296 297 296 296 294
168 165 165 170 170 167 161 167 159 154 139 161 163 166 174 181 188 200 216 230 229 230 229 224 230 248 265 277 282 283 283 288 292 291 295 295 295 292
158 152 151 158 163 161 154 151 146 126 146 151 161 163 180 189 195 211 220 228 227 227 225 233 251 265 272 284 286 287 291 293 291 290 291 292 293 290
134 160 156 158 162 166 165 155 167 177 156 154 161 167 172 181 202 222 208 208 207 219 239 252 261 273 289 294 295 292 292 288 285 287 287 290 290 289
134 152 157 166 168 170 159 147 153 153 163 175 181 185 178 180 188 192 205 209 219 222 247 248 266 289 294 295 296 294 291 291 292 294 293 290 288 288
137 140 142 138 142 142 146 146 144 172 173 182 179 181 189 185 193 201 212 224 236 245 263 280 293 301 301 302 300 296 296 300 302 306 307 306 304 300
156 147 149 146 141 138 135 146 165 167 175 180 178 181 186 190 196 206 222 249 267 280 286 296 302 295 295 297 303 310 314 314 315 317 315 310 306 302
146 150 145 151 136 134 137 147 163 173 165 162 160 172 181 182 197 216 250 261 274 287 302 295 295 294 300 306 319 317 317 315 313 313 311 308 306 301
136 138 151 155 152 146 145 146 165 170 159 148 144 144 142 111 263 260 264 273 281 285 281 288 292 302 318 314 314 312 310 304 303 303 300 298 301 305
138 140 148 157 163 162 159 170 171 174 189 203 216 207 236 247 252 257 263 270 270 276 278 286 295 298 302 317 323 322 311 308 302 295 297 298 296 294
133 143 152 151 151 168 179 172 173 182 185 191 187 205 228 242 246 257 262 264 274 280 287 294 295 297 298 305 316 320 321 304 307 317 320 320 313 307
151 155 159 162 168 171 171 177 179 189 200 203 207 218 233 251 251 246 265 277 304 332 320 331 345 355 343 333 328 341 340 338 336 336 334 327 325 315
169 171 168 172 172 169 166 168 174 175 174 177 186 196 216 224 234 247 298 342 344 348 344 340 340 351 346 341 337 339 338 331 331 323 318 316 316 312
177 172 170 171 171 166 162 166 175 183 196 202 194 205 209 192 132 8 324 324 350 14 354 327 343 342 340 336 339 332 330 329 325 316 314 314 317 320
170 169 167 167 166 169 177 188 198 208 211 180 192 188 196 283 302 303 298 308 303 318 322 326 333 328 328 330 329 328 325 327 324 323 321 319 318 316
167 170 172 174 179 190 200 208 220 222 205 200 197 231 260 266 269 275 296 303 296 310 357 321 324 329 330 330 329 326 329 332 329 332 329 327 328 327
183 185 189 192 199 206 215 222 214 198 206 201 205 257 255 291 336 321 314 314 20 9 353 353 356 354 348 342 341 339 337 335 332 331 326 325 332 341
194 200 202 204 217 225 207 198 193 212 214 208 220 266 253 278 314 317 92 59 35 12 1 357 355 352 355 1 355 341 334 331 331 331 330 331 336 350
207 209 213 216 211 195 208 216 214 219 217 221 251 249 247 271 161 133 98 68 42 27 13 0 354 353 352 345 344 343 329 335 340 345 344 341 340 342
218 219 221 220 215 229 235 229 223 209 214 233 233 223 192 159 146 136 99 54 43 31 20 5 3 1 351 340 339 350 1 351 343 335 336 334 336 335
219 219 217 218 229 230 222 218 213 207 214 207 213 177 167 159 152 138 94 54 31 18 8 1 355 349 348 349 352 351 355 357 355 346 334 333 334 333
224 219 220 221 212 220 218 213 204 205 201 194 172 176 169 164 158 134 96 43 17 358 356 354 346 348 353 356 352 352 349 346 346 345 344 338 337 327
220 222 227 228 219 221 220 209 206 197 180 174 184 176 176 167 158 134 76 29 4 355 348 348 349 347 351 349 352 352 351 347 339 336 338 344 340 338
Wind_Speed_850mb
43 43 42 59 55 60 64 58 67 36 39 57 60 54 54 57 49 41 21 21 18 18 20 20 20 18 16 17 19 22 24 27 28 30 34 36 36 36
40 34 43 54 48 53 62 58 52 50 35 69 52 55 56 63 49 38 22 19 19 19 20 20 19 19 19 18 21 26 30 32 34 37 38 41 41 41
37 37 44 46 57 68 49 53 53 39 64 53 48 41 50 55 44 36 29 22 21 20 20 20 21 22 21 21 25 31 34 37 41 44 44 45 46 48
33 45 54 50 64 51 47 54 38 42 45 43 39 35 35 33 30 29 26 21 19 19 18 23 26 24 25 29 34 38 42 46 49 51 52 52 54 56
33 48 53 50 60 49 56 50 50 42 35 32 35 31 29 26 24 27 20 19 21 19 19 22 24 25 31 38 43 47 51 54 57 58 60 61 62 62
37 41 53 52 59 55 56 54 33 29 32 33 29 37 32 25 19 23 25 22 18 21 19 22 27 34 36 36 40 43 46 45 45 46 48 51 54 58
33 33 50 44 59 60 51 38 35 40 35 24 27 33 30 31 24 22 23 18 19 26 28 27 29 32 34 40 44 45 45 46 46 50 53 55 57 58
42 48 48 68 56 44 34 26 32 34 28 28 29 27 23 18 17 15 13 18 22 14 31 33 38 49 45 46 47 54 57 57 56 56 61 63 65 67
51 56 62 65 47 40 37 30 32 21 18 14 15 12 8 5 3 7 15 21 26 28 42 50 47 54 48 53 53 55 59 51 51 57 68 63 64 71
42 45 53 50 40 39 34 32 35 33 26 27 29 21 13 18 19 20 26 29 31 32 34 38 35 39 31 27 37 40 39 50 58 64 61 62 66 66
32 36 42 41 36 32 37 48 39 37 30 27 23 24 23 24 26 28 35 35 37 33 33 32 32 43 48 48 38 38 42 43 52 52 45 49 53 54
29 33 32 35 37 37 37 36 34 34 28 28 22 19 17 14 15 12 10 9 11 17 22 38 31 34 25 20 42 51 55 51 54 51 53 50 53 54
29 34 34 34 33 31 30 29 30 28 24 18 13 9 5 8 10 6 5 7 14 20 22 24 28 33 43 50 53 53 50 52 47 41 51 55 62 65
28 30 33 36 35 33 31 27 21 17 13 9 10 17 18 11 2 4 11 15 12 8 6 15 21 25 30 41 49 55 57 51 52 57 66 71 61 58
28 33 37 38 37 32 30 28 25 23 20 22 24 15 7 6 13 17 9 7 11 8 19 21 23 30 39 45 52 59 71 69 61 64 64 63 65 69
34 37 36 34 33 31 29 26 23 19 20 22 16 10 12 13 17 14 12 11 15 15 11 17 25 30 35 40 48 55 57 60 69 71 73 72 70 61
39 38 40 40 38 36 27 18 17 22 23 20 11 9 13 6 2 8 13 7 7 13 19 24 30 33 36 43 48 52 61 64 67 70 72 77 69 58
47 42 39 35 30 25 25 29 30 30 30 19 11 5 5 3 10 4 8 10 10 13 20 30 40 45 46 46 47 58 61 64 65 67 64 67 67 50
48 40 36 32 25 29 30 29 37 41 30 19 12 8 7 9 12 11 6 7 11 17 24 31 39 47 56 61 61 58 61 58 58 66 66 59 61 52
56 48 43 35 37 39 42 46 47 45 35 27 21 17 16 20 15 10 9 11 15 19 23 30 43 53 56 60 61 56 54 58 58 62 66 64 64 54
59 54 49 44 43 44 55 58 51 41 33 28 22 26 27 22 18 11 9 10 16 24 32 39 44 51 52 55 61 67 65 59 58 56 60 67 69 71
55 55 56 54 55 59 59 56 46 35 32 26 31 27 27 22 15 11 8 11 17 21 28 35 41 51 58 60 61 71 79 72 61 57 51 47 56 62
58 60 57 58 65 66 60 52 41 38 36 38 31 29 28 24 17 9 7 8 14 23 31 36 47 54 57 58 62 72 72 71 74 77 72 54 48 45
Wind_Direction_850mb
180 182 172 167 169 173 172 165 160 165 145 173 173 182 183 177 187 193 192 201 212 222 216 217 219 228 251 269 279 278 281 284 291 296 297 296 296 294
168 165 165 170 170 167 161 167 159 154 139 161 163 166 174 181 188 200 216 230 229 230 229 224 230 248 265 277 282 283 283 288 292 291 295 295 295 292
158 152 151 158 163 161 154 151 146 126 146 151 161 163 180 189 195 211 220 228 227 227 225 233 251 265 272 284 286 287 291 293 291 290 291 292 293 290
134 160 156 158 162 166 165 155 167 177 156 154 161 167 172 181 202 222 208 208 207 219 239 252 261 273 289 294 295 292 292 288 285 287 287 290 290 289
134 152 157 166 168 170 159 147 153 153 163 175 181 185 178 180 188 192 205 209 219 222 247 248 266 289 294 295 296 294 291 291 292 294 293 290 288 288
137 140 142 138 142 142 146 146 144 172 173 182 179 181 189 185 193 201 212 224 236 245 263 280 293 301 301 302 300 296 296 300 302 306 307 306 304 300
156 147 149 146 141 138 135 146 165 167 175 180 178 181 186 190 196 206 222 249 267 280 286 296 302 295 295 297 303 310 314 314 315 317 315 310 306 302
146 150 145 151 136 134 137 147 163 173 165 162 160 172 181 182 197 216 250 261 274 287 302 295 295 294 300 306 319 317 317 315 313 313 311 308 306 301
136 138 151 155 152 146 145 146 165 170 159 148 144 144 142 111 263 260 264 273 281 285 281 288 292 302 318 314 314 312 310 304 303 303 300 298 301 305
138 140 148 157 163 162 159 170 171 174 189 203 216 207 236 247 252 257 263 270 270 276 278 286 295 298 302 317 323 322 311 308 302 295 297 298 296 294
133 143 152 151 151 168 179 172 173 182 185 191 187 205 228 242 246 257 262 264 274 280 287 294 295 297 298 305 316 320 321 304 307 317 320 320 313 307
151 155 159 162 168 171 171 177 179 189 200 203 207 218 233 251 251 246 265 277 304 332 320 331 345 355 343 333 328 341 340 338 336 336 334 327 325 315
169 171 168 172 172 169 166 168 174 175 174 177 186 196 216 224 234 247 298 342 344 348 344 340 340 351 346 341 337 339 338 331 331 323 318 316 316 312
177 172 170 171 171 166 162 166 175 183 196 202 194 205 209 192 132 8 324 324 350 14 354 327 343 342 340 336 339 332 330 329 325 316 314 314 317 320
170 169 167 167 166 169 177 188 198 208 211 180 192 188 196 283 302 303 298 308 303 318 322 326 333 328 328 330 329 328 325 327 324 323 321 319 318 316
167 170 172 174 179 190 200 208 220 222 205 200 197 231 260 266 269 275 296 303 296 310 357 321 324 329 330 330 329 326 329 332 329 332 329 327 328 327
183 185 189 192 199 206 215 222 214 198 206 201 205 257 255 291 336 321 314 314 20 9 353 353 356 354 348 342 341 339 337 335 332 331 326 325 332 341
194 200 202 204 217 225 207 198 193 212 214 208 220 266 253 278 314 317 92 59 35 12 1 357 355 352 355 1 355 341 334 331 331 331 330 331 336 350
207 209 213 216 211 195 208 216 214 219 217 221 251 249 247 271 161 133 98 68 42 27 13 0 354 353 352 345 344 343 329 335 340 345 344 341 340 342
218 219 221 220 215 229 235 229 223 209 214 233 233 223 192 159 146 136 99 54 43 31 20 5 3 1 351 340 339 350 1 351 343 335 336 334 336 335
219 219 217 218 229 230 222 218 213 207 214 207 213 177 167 159 152 138 94 54 31 18 8 1 355 349 348 349 352 351 355 357 355 346 334 333 334 333
224 219 220 221 212 220 218 213 204 205 201 194 172 176 169 164 158 134 96 43 17 358 356 354 346 348 353 356 352 352 349 346 346 345 344 338 337 327
220 222 227 228 219 221 220 209 206 197 180 174 184 176 176 167 158 134 76 29 4 355 348 348 349 347 351 349 352 352 351 347 339 336 338 344 340 338